STARLINK-35022

Last updated on Tue Sep 16 2025 00:02:07 GMT+0000 (Coordinated Universal Time)

1 65409U 25192F 25258.58341435 -.01476520 00000+0 -15562-1 0 9994 2 65409 53.1597 338.1224 0001079 81.1667 146.6174 15.66410278 3625
UTC large
Height (km)
Speed (km/s)
/
Latitude / Longitude
Inclination (degrees)
Orbital Period (minutes)
Azimuth
Elevation
Range (km)
Doppler Factor

Next 0 passes for location: London (51.5072 / 0.1276)

Sorry there are no passes over London.